Miscellaneous Local Product
Issued by NWS Hastings, NE

Home | Current Version | Previous Version | Graphics & Text | Print | Product List | Glossary Off
Versions: 1 2 3 4 5 6 7 8 9 10 11 12 13 14 15 16 17 18 19 20 21 22 23 24 25 26 27 28 29 30 31 32 33 34 35 36 37 38 39 40 41 42 43 44 45 46 47 48 49 50

000
AXUS43 KGID 162102
MISGRI

GID CWA HOURLY WEATHER ROUNDUP
NATIONAL WEATHER SERVICE HASTINGS NE
400 PM CDT TUE SEP 16 2014

NOTE: "FAIR" INDICATES FEW OR NO CLOUDS BELOW 12,000 FEET WITH NO
SIGNIFICANT WEATHER AND/OR OBSTRUCTIONS TO VISIBILITY.

...SOUTH CENTRAL NEBRASKA...

CITY           SKY/WX    TMP DP  RH WIND       PRES   REMARKS
GRAND ISLAND   CLOUDY    69  54  58 S13       30.04F
HASTINGS       CLOUDY    67  51  56 S13       30.05F
KEARNEY        CLOUDY    66  55  68 S13       30.04F
ORD            CLOUDY    68  55  63 S16G23    30.01F
YORK           CLOUDY    68  50  52 S9        30.06F
AURORA         CLOUDY    69  48  47 S10       30.05F
LEXINGTON      CLOUDY    70  59  67 S13G18    30.03F
HOLDREGE       CLOUDY    67  54  63 S12G17    30.04F
HEBRON         CLOUDY    69  47  45 S7        30.05F

...NEBRASKA PANHANDLE...

CITY           SKY/WX    TMP DP  RH WIND       PRES   REMARKS
CHADRON        MOSUNNY   85  44  23 NE3       29.97F
ALLIANCE       PTSUNNY   84  43  23 N6        30.02F
SCOTTSBLUFF    SUNNY     87  47  24 W7        30.03F
SIDNEY         SUNNY     86  40  19 N12G23    30.07F

...WESTERN AND NORTH CENTRAL NEBRASKA...

CITY           SKY/WX    TMP DP  RH WIND       PRES   REMARKS
VALENTINE      SUNNY     80  56  43 CALM      29.96F
AINSWORTH      SUNNY     76  57  51 S10G16    29.96F
ONEILL         PTSUNNY   70  57  64 S15G21    30.00F
BROKEN BOW     CLOUDY    68  56  65 S15G21    30.02F
IMPERIAL       MOSUNNY   85  51  31 W9        29.98F
NORTH PLATTE   SUNNY     76  58  53 S16G23    29.98F
MCCOOK         SUNNY     78  58  49 S15       29.99F

...EASTERN NEBRASKA...

CITY           SKY/WX    TMP DP  RH WIND       PRES   REMARKS
NORFOLK        PTSUNNY   68  49  50 S14       30.04F
SO SIOUX CITY  SUNNY     70  47  43 SE12      30.06F
TEKAMAH        SUNNY     69  47  45 S9        30.07F
ALBION         CLOUDY    68  53  58 S12G17    30.03F
OMAHA EPPLEY   MOSUNNY   68  49  50 S10       30.08F
OFFUTT AFB     SUNNY     68  53  57 SE6       30.07F
MILLARD        SUNNY     69  48  48 SE7       30.07F
LINCOLN        SUNNY     71  46  40 S8        30.07F
NEBRASKA CITY  SUNNY     68  40  35 S8        30.08F
BEATRICE       SUNNY     71  47  42 S10       30.06F
FALLS CITY     SUNNY     71  51  49 CALM      30.08F

...NORTHERN KANSAS...

CITY           SKY/WX    TMP DP  RH WIND       PRES   REMARKS
GOODLAND       SUNNY     84  55  36 SW10      30.02F
HILL CITY      PTSUNNY   74  58  57 S15       30.03F
NORTON         PTCLDY    73  52  46 S13G23    30.01F
PHILLIPSBURG   CLOUDY    70  55  60 S13G18    30.04F
SMITH CENTER   CLOUDY    68  54  60 SE15      30.05F
BELOIT         MOSUNNY   72  52  49 SE10      30.04F
HAYS           MOSUNNY   75  61  60 S13G22    30.03F
RUSSELL        MOSUNNY   74  59  59 S12G21    30.03F
CONCORDIA      CLOUDY    69  52  54 SE12      30.06F
SALINA         SUNNY     75  54  47 S8        30.06F
TOPEKA         SUNNY     72  50  45 SE5       30.08F



USA.gov is the U.S. government's official web portal to all federal, state and local government web resources and services.